TimeMST,TemperatureF,Dew PointF,Humidity,Sea Level PressureIn,VisibilityMPH,Wind Direction,Wind SpeedMPH,Gust SpeedMPH,PrecipitationIn,Events,Conditions,WindDirDegrees,DateUTC
12:53 AM,16.0,10.9,81,30.14,10.0,SSW,6.9,-,N/A,,Clear,200,2011-11-07 07:53:00
1:53 AM,16.0,10.9,81,30.13,10.0,South,6.9,-,N/A,,Clear,170,2011-11-07 08:53:00
2:53 AM,17.1,10.9,77,30.14,10.0,South,5.8,-,N/A,,Clear,170,2011-11-07 09:53:00
3:53 AM,17.1,10.9,77,30.14,10.0,South,8.1,-,N/A,,Clear,170,2011-11-07 10:53:00
4:53 AM,17.1,10.9,77,30.17,10.0,Calm,Calm,-,N/A,,Clear,0,2011-11-07 11:53:00
5:53 AM,16.0,10.0,77,30.19,10.0,South,5.8,-,N/A,,Clear,180,2011-11-07 12:53:00
6:53 AM,18.0,10.9,74,30.21,10.0,South,9.2,-,N/A,,Clear,170,2011-11-07 13:53:00
7:53 AM,23.0,14.0,68,30.06,10.0,SSE,6.9,-,N/A,,Clear,160,2011-11-07 14:53:00
8:53 AM,30.0,16.0,56,30.20,10.0,SSE,9.2,-,N/A,,Clear,160,2011-11-07 15:53:00
10:53 AM,37.0,18.0,46,30.18,10.0,South,8.1,-,N/A,,Clear,170,2011-11-07 17:53:00
11:53 AM,41.0,16.0,36,30.14,10.0,South,5.8,-,N/A,,Clear,190,2011-11-07 18:53:00
12:53 PM,42.1,18.0,38,30.11,10.0,SSE,6.9,-,N/A,,Clear,150,2011-11-07 19:53:00
1:53 PM,43.0,18.0,37,30.09,10.0,East,5.8,-,N/A,,Clear,90,2011-11-07 20:53:00
2:53 PM,42.1,17.1,37,30.09,10.0,East,6.9,-,N/A,,Mostly Cloudy,100,2011-11-07 21:53:00
3:53 PM,-9999,-9999,N/A,30.00,-9999.0,North,-9999.0,-,N/A,,Unknown,0,2011-11-07 22:53:00
3:58 PM,51.8,33.8,50,30.00,10.0,East,5.8,-,N/A,,Clear,80,2011-11-07 22:58:00
4:53 PM,30.9,16.0,54,30.14,10.0,North,4.6,-,N/A,,Scattered Clouds,350,2011-11-07 23:53:00
5:53 PM,21.9,15.1,75,30.20,10.0,Calm,Calm,-,N/A,,Clear,0,2011-11-08 00:53:00
6:53 PM,19.4,14.0,80,30.04,10.0,West,3.5,-,N/A,,Clear,260,2011-11-08 01:53:00
7:53 PM,19.9,14.0,78,30.19,10.0,South,4.6,-,N/A,,Clear,180,2011-11-08 02:53:00
8:53 PM,19.9,14.0,78,30.17,10.0,SSW,3.5,-,N/A,,Clear,200,2011-11-08 03:53:00
9:53 PM,17.1,12.0,81,30.16,10.0,Calm,Calm,-,N/A,,Clear,0,2011-11-08 04:53:00
10:53 PM,17.1,14.0,88,30.14,10.0,SW,3.5,-,N/A,,Clear,220,2011-11-08 05:53:00
11:53 PM,16.0,12.0,84,30.13,10.0,Calm,Calm,-,N/A,,Clear,0,2011-11-08 06:53:00